| time (UTC) | temp F | wind direction | speed MPH | gust MPH | rain 1hr in | rain 24hr in | rain mn in | humidity % | barometer mb |
| 20260504044052 | 65 | 183 | 4.0 | 9.0 | 0.00 | 0.00 | 0.00 | 75 | 1018.9 |
| 20260504043552 | 65 | 182 | 3.0 | 8.0 | 0.00 | 0.00 | 0.00 | 75 | 1018.9 |
| 20260504043059 | 65 | 181 | 4.0 | 7.0 | 0.00 | 0.00 | 0.00 | 75 | 1018.9 |
| 20260504042551 | 65 | 180 | 3.0 | 7.0 | 0.00 | 0.00 | 0.00 | 75 | 1018.9 |
| 20260504042052 | 65 | 180 | 3.0 | 6.0 | 0.00 | 0.00 | 0.00 | 75 | 1018.9 |
| 20260504041552 | 65 | 188 | 3.0 | 6.0 | 0.00 | 0.00 | 0.00 | 75 | 1018.9 |
| 20260504041052 | 65 | 184 | 3.0 | 6.0 | 0.00 | 0.00 | 0.00 | 74 | 1018.9 |
| 20260504040552 | 65 | 190 | 2.0 | 5.0 | 0.00 | 0.00 | 0.00 | 74 | 1018.8 |
| 20260504040105 | 65 | 178 | 2.0 | 6.0 | 0.00 | 0.00 | 0.00 | 74 | 1018.8 |
| 20260504035552 | 65 | 177 | 3.0 | 6.0 | 0.00 | 0.00 | 0.00 | 74 | 1018.8 |
| 20260504035052 | 65 | 186 | 3.0 | 6.0 | 0.00 | 0.00 | 0.00 | 73 | 1018.9 |
| 20260504034553 | 66 | 178 | 2.0 | 6.0 | 0.00 | 0.00 | 0.00 | 73 | 1018.9 |
| 20260504034052 | 66 | 171 | 2.0 | 6.0 | 0.00 | 0.00 | 0.00 | 73 | 1018.9 |
| 20260504033552 | 66 | 178 | 3.0 | 6.0 | 0.00 | 0.00 | 0.00 | 73 | 1018.8 |
| 20260504033057 | 66 | 177 | 3.0 | 7.0 | 0.00 | 0.00 | 0.00 | 72 | 1018.8 |
| 20260504032552 | 66 | 182 | 4.0 | 8.0 | 0.00 | 0.00 | 0.00 | 72 | 1018.9 |
| 20260504032053 | 66 | 192 | 4.0 | 8.0 | 0.00 | 0.00 | 0.00 | 72 | 1018.9 |
| 20260504031623 | 66 | 187 | 4.0 | 8.0 | 0.00 | 0.00 | 0.00 | 72 | 1018.8 |
| 20260504031052 | 67 | 178 | 4.0 | 7.0 | 0.00 | 0.00 | 0.00 | 72 | 1018.9 |
| 20260504030553 | 67 | 187 | 4.0 | 7.0 | 0.00 | 0.00 | 0.00 | 72 | 1018.9 |
| 20260504030054 | 67 | 173 | 4.0 | 7.0 | 0.00 | 0.00 | 0.00 | 71 | 1018.8 |
| 20260504025552 | 67 | 181 | 3.0 | 7.0 | 0.00 | 0.00 | 0.00 | 71 | 1018.9 |
| 20260504025056 | 67 | 178 | 3.0 | 6.0 | 0.00 | 0.00 | 0.00 | 71 | 1018.9 |
| 20260504024553 | 68 | 188 | 3.0 | 6.0 | 0.00 | 0.00 | 0.00 | 71 | 1018.8 |
| 20260504024052 | 68 | 173 | 3.0 | 6.0 | 0.00 | 0.00 | 0.00 | 70 | 1018.6 |
| 20260504023552 | 68 | 178 | 3.0 | 6.0 | 0.00 | 0.00 | 0.00 | 70 | 1018.5 |
| 20260504023059 | 68 | 186 | 2.0 | 7.0 | 0.00 | 0.00 | 0.00 | 70 | 1018.6 |
| 20260504022552 | 68 | 189 | 3.0 | 7.0 | 0.00 | 0.00 | 0.00 | 69 | 1018.4 |
| 20260504022052 | 69 | 182 | 3.0 | 6.0 | 0.00 | 0.00 | 0.00 | 69 | 1018.3 |
| 20260504021605 | 69 | 188 | 3.0 | 7.0 | 0.00 | 0.00 | 0.00 | 69 | 1018.3 |
| 20260504021052 | 69 | 178 | 3.0 | 7.0 | 0.00 | 0.00 | 0.00 | 68 | 1018.3 |
| 20260504020551 | 69 | 187 | 3.0 | 8.0 | 0.00 | 0.00 | 0.00 | 68 | 1018.3 |
| 20260504015551 | 70 | 190 | 3.0 | 6.0 | 0.00 | 0.00 | 0.00 | 67 | 1018.2 |
| 20260504015052 | 70 | 186 | 3.0 | 8.0 | 0.00 | 0.00 | 0.00 | 67 | 1018.2 |
| 20260504014553 | 71 | 186 | 3.0 | 9.0 | 0.00 | 0.00 | 0.00 | 66 | 1018.2 |
| 20260504014050 | 71 | 198 | 3.0 | 10.0 | 0.00 | 0.00 | 0.00 | 66 | 1018.1 |
| 20260504013552 | 71 | 179 | 5.0 | 10.0 | 0.00 | 0.00 | 0.00 | 65 | 1018.0 |
| 20260504013059 | 71 | 181 | 5.0 | 10.0 | 0.00 | 0.00 | 0.00 | 65 | 1018.0 |
| 20260504012554 | 72 | 200 | 5.0 | 10.0 | 0.00 | 0.00 | 0.00 | 64 | 1018.1 |
| 20260504012056 | 72 | 200 | 5.0 | 10.0 | 0.00 | 0.00 | 0.00 | 63 | 1018.0 |
| 20260504011556 | 72 | 183 | 4.0 | 11.0 | 0.00 | 0.00 | 0.00 | 63 | 1018.0 |
| 20260504011054 | 73 | 157 | 5.0 | 12.0 | 0.00 | 0.00 | 0.00 | 62 | 1018.0 |
| 20260504010554 | 73 | 188 | 5.0 | 12.0 | 0.00 | 0.00 | 0.00 | 62 | 1018.0 |
| 20260504010115 | 74 | 183 | 5.0 | 12.0 | 0.00 | 0.00 | 0.00 | 61 | 1018.0 |
| 20260504005554 | 74 | 182 | 5.0 | 13.0 | 0.00 | 0.00 | 0.00 | 60 | 1017.9 |
| 20260504005052 | 75 | 193 | 5.0 | 15.0 | 0.00 | 0.00 | 0.00 | 58 | 1018.1 |
| 20260504004556 | 76 | 192 | 5.0 | 15.0 | 0.00 | 0.00 | 0.00 | 54 | 1018.1 |
| 20260504004052 | 76 | 117 | 2.0 | 5.0 | 0.00 | 0.00 | 0.00 | 50 | 1018.0 |
| 20260504003554 | 77 | 124 | 0.0 | 2.0 | 0.00 | 0.00 | 0.00 | 50 | 1018.0 |
| 20260504003051 | 77 | 124 | 0.0 | 5.0 | 0.00 | 0.00 | 0.00 | 49 | 1018.1 |
| 20260504002551 | 77 | 0 | 0.0 | 5.0 | 0.00 | 0.00 | 0.00 | 48 | 1018.1 |
| 20260504002052 | 77 | 155 | 0.0 | 6.0 | 0.00 | 0.00 | 0.00 | 47 | 1018.1 |
| 20260504001611 | 78 | 158 | 2.0 | 6.0 | 0.00 | 0.00 | 0.00 | 46 | 1018.0 |
| 20260504001052 | 78 | 174 | 3.0 | 6.0 | 0.00 | 0.00 | 0.00 | 46 | 1018.0 |
| 20260504000551 | 78 | 140 | 2.0 | 7.0 | 0.00 | 0.00 | 0.00 | 44 | 1018.2 |
| 20260504000105 | 78 | 163 | 2.0 | 7.0 | 0.00 | 0.00 | 0.00 | 44 | 1018.3 |
| 20260503235550 | 78 | 127 | 1.0 | 8.0 | 0.00 | 0.00 | 0.00 | 44 | 1018.4 |
| 20260503235052 | 78 | 138 | 2.0 | 8.0 | 0.00 | 0.00 | 0.00 | 44 | 1018.3 |
| 20260503234555 | 78 | 145 | 3.0 | 10.0 | 0.00 | 0.00 | 0.00 | 43 | 1018.2 |
| 20260503234052 | 78 | 112 | 3.0 | 10.0 | 0.00 | 0.00 | 0.00 | 43 | 1018.2 |
| 20260503233555 | 78 | 169 | 3.0 | 8.0 | 0.00 | 0.00 | 0.00 | 43 | 1018.3 |
| 20260503233055 | 79 | 123 | 3.0 | 8.0 | 0.00 | 0.00 | 0.00 | 43 | 1018.2 |
| 20260503232554 | 79 | 149 | 3.0 | 8.0 | 0.00 | 0.00 | 0.00 | 44 | 1018.2 |
| 20260503232052 | 79 | 156 | 2.0 | 10.0 | 0.00 | 0.00 | 0.00 | 43 | 1018.2 |
| 20260503231556 | 79 | 130 | 2.0 | 10.0 | 0.00 | 0.00 | 0.00 | 43 | 1018.2 |
| 20260503231052 | 79 | 155 | 4.0 | 10.0 | 0.00 | 0.00 | 0.00 | 42 | 1018.4 |
| 20260503230555 | 79 | 135 | 3.0 | 9.0 | 0.00 | 0.00 | 0.00 | 42 | 1018.5 |
| 20260503230100 | 79 | 173 | 4.0 | 10.0 | 0.00 | 0.00 | 0.00 | 40 | 1018.6 |
| 20260503225552 | 80 | 134 | 3.0 | 10.0 | 0.00 | 0.00 | 0.00 | 42 | 1018.5 |
| 20260503225054 | 79 | 149 | 3.0 | 10.0 | 0.00 | 0.00 | 0.00 | 42 | 1018.4 |
| 20260503224557 | 80 | 100 | 3.0 | 10.0 | 0.00 | 0.00 | 0.00 | 42 | 1018.5 |
| 20260503224051 | 80 | 101 | 3.0 | 10.0 | 0.00 | 0.00 | 0.00 | 40 | 1018.7 |
| 20260503223551 | 80 | 156 | 3.0 | 9.0 | 0.00 | 0.00 | 0.00 | 41 | 1018.8 |
| 20260503223057 | 80 | 158 | 3.0 | 9.0 | 0.00 | 0.00 | 0.00 | 41 | 1018.8 |
| 20260503222550 | 80 | 101 | 4.0 | 9.0 | 0.00 | 0.00 | 0.00 | 40 | 1018.9 |
| 20260503222054 | 80 | 166 | 3.0 | 9.0 | 0.00 | 0.00 | 0.00 | 43 | 1018.8 |
| 20260503221555 | 80 | 84 | 2.0 | 9.0 | 0.00 | 0.00 | 0.00 | 43 | 1018.8 |
| 20260503221054 | 80 | 127 | 2.0 | 10.0 | 0.00 | 0.00 | 0.00 | 44 | 1018.8 |
| 20260503220555 | 80 | 63 | 4.0 | 11.0 | 0.00 | 0.00 | 0.00 | 41 | 1018.9 |
| 20260503215555 | 80 | 167 | 4.0 | 10.0 | 0.00 | 0.00 | 0.00 | 43 | 1019.2 |
| 20260503215054 | 80 | 90 | 3.0 | 10.0 | 0.00 | 0.00 | 0.00 | 42 | 1019.2 |
| 20260503214557 | 80 | 132 | 4.0 | 10.0 | 0.00 | 0.00 | 0.00 | 41 | 1019.2 |
| 20260503214059 | 80 | 85 | 2.0 | 11.0 | 0.00 | 0.00 | 0.00 | 40 | 1019.4 |
| 20260503213554 | 80 | 92 | 2.0 | 11.0 | 0.00 | 0.00 | 0.00 | 42 | 1019.6 |
| 20260503213123 | 79 | 205 | 4.0 | 9.0 | 0.00 | 0.00 | 0.00 | 41 | 1019.7 |
| 20260503212554 | 79 | 111 | 4.0 | 9.0 | 0.00 | 0.00 | 0.00 | 42 | 1019.7 |
| 20260503212054 | 79 | 169 | 4.0 | 12.0 | 0.00 | 0.00 | 0.00 | 42 | 1019.8 |
| 20260503211619 | 79 | 148 | 5.0 | 12.0 | 0.00 | 0.00 | 0.00 | 44 | 1019.9 |
| 20260503211052 | 79 | 155 | 6.0 | 17.0 | 0.00 | 0.00 | 0.00 | 42 | 1020.0 |
| 20260503210552 | 79 | 199 | 7.0 | 17.0 | 0.00 | 0.00 | 0.00 | 42 | 1020.1 |
| 20260503210052 | 79 | 200 | 6.0 | 14.0 | 0.00 | 0.00 | 0.00 | 45 | 1020.0 |
| 20260503205552 | 80 | 167 | 4.0 | 9.0 | 0.00 | 0.00 | 0.00 | 41 | 1020.1 |
| 20260503205056 | 80 | 138 | 3.0 | 9.0 | 0.00 | 0.00 | 0.00 | 46 | 1020.2 |
| 20260503204606 | 79 | 190 | 4.0 | 10.0 | 0.00 | 0.00 | 0.00 | 47 | 1020.2 |
| 20260503204054 | 79 | 208 | 4.0 | 10.0 | 0.00 | 0.00 | 0.00 | 42 | 1020.2 |
| 20260503203551 | 79 | 171 | 5.0 | 18.0 | 0.00 | 0.00 | 0.00 | 45 | 1020.4 |
| 20260503203111 | 79 | 196 | 8.0 | 18.0 | 0.00 | 0.00 | 0.00 | 44 | 1020.5 |
| 20260503202552 | 79 | 194 | 7.0 | 13.0 | 0.00 | 0.00 | 0.00 | 44 | 1020.4 |
| 20260503202056 | 79 | 153 | 3.0 | 12.0 | 0.00 | 0.00 | 0.00 | 44 | 1020.4 |
| 20260503201552 | 79 | 194 | 4.0 | 13.0 | 0.00 | 0.00 | 0.00 | 44 | 1020.6 |
| 20260503201055 | 79 | 112 | 5.0 | 14.0 | 0.00 | 0.00 | 0.00 | 44 | 1020.6 |
| 20260503200551 | 79 | 182 | 6.0 | 14.0 | 0.00 | 0.00 | 0.00 | 44 | 1020.8 |
| 20260503200054 | 79 | 156 | 7.0 | 14.0 | 0.00 | 0.00 | 0.00 | 45 | 1020.7 |
| 20260503195555 | 80 | 117 | 5.0 | 11.0 | 0.00 | 0.00 | 0.00 | 47 | 1020.9 |
| 20260503195054 | 80 | 108 | 5.0 | 11.0 | 0.00 | 0.00 | 0.00 | 43 | 1020.9 |
| 20260503194611 | 80 | 192 | 6.0 | 11.0 | 0.00 | 0.00 | 0.00 | 44 | 1020.9 |
| 20260503194054 | 80 | 172 | 4.0 | 12.0 | 0.00 | 0.00 | 0.00 | 44 | 1021.1 |
| 20260503193554 | 80 | 85 | 3.0 | 14.0 | 0.00 | 0.00 | 0.00 | 44 | 1021.2 |
| 20260503193107 | 80 | 151 | 6.0 | 16.0 | 0.00 | 0.00 | 0.00 | 45 | 1021.3 |
| 20260503192552 | 80 | 155 | 5.0 | 16.0 | 0.00 | 0.00 | 0.00 | 44 | 1021.3 |
| 20260503192055 | 80 | 162 | 6.0 | 12.0 | 0.00 | 0.00 | 0.00 | 43 | 1021.5 |
| 20260503191604 | 79 | 161 | 5.0 | 12.0 | 0.00 | 0.00 | 0.00 | 47 | 1021.4 |
| 20260503191055 | 79 | 117 | 4.0 | 10.0 | 0.00 | 0.00 | 0.00 | 44 | 1021.4 |
| 20260503190556 | 79 | 114 | 4.0 | 10.0 | 0.00 | 0.00 | 0.00 | 43 | 1021.5 |
| 20260503190056 | 79 | 96 | 5.0 | 12.0 | 0.00 | 0.00 | 0.00 | 45 | 1021.6 |
| 20260503185554 | 79 | 150 | 3.0 | 12.0 | 0.00 | 0.00 | 0.00 | 43 | 1021.6 |
| 20260503185054 | 79 | 164 | 6.0 | 12.0 | 0.00 | 0.00 | 0.00 | 44 | 1021.7 |
| 20260503184628 | 80 | 207 | 6.0 | 13.0 | 0.00 | 0.00 | 0.00 | 43 | 1021.9 |
| 20260503184054 | 80 | 196 | 3.0 | 16.0 | 0.00 | 0.00 | 0.00 | 44 | 1021.9 |
| 20260503183553 | 79 | 67 | 5.0 | 16.0 | 0.00 | 0.00 | 0.00 | 44 | 1022.0 |
| 20260503183108 | 79 | 97 | 3.0 | 9.0 | 0.00 | 0.00 | 0.00 | 44 | 1022.1 |
| 20260503182552 | 79 | 78 | 4.0 | 12.0 | 0.00 | 0.00 | 0.00 | 41 | 1022.1 |
| 20260503182052 | 79 | 188 | 4.0 | 14.0 | 0.00 | 0.00 | 0.00 | 46 | 1022.3 |
| 20260503181557 | 79 | 147 | 4.0 | 14.0 | 0.00 | 0.00 | 0.00 | 41 | 1022.3 |
| 20260503181052 | 79 | 171 | 3.0 | 12.0 | 0.00 | 0.00 | 0.00 | 42 | 1022.4 |
| 20260503180554 | 79 | 113 | 4.0 | 12.0 | 0.00 | 0.00 | 0.00 | 40 | 1022.4 |
| 20260503180053 | 79 | 161 | 3.0 | 12.0 | 0.00 | 0.00 | 0.00 | 42 | 1022.5 |
| 20260503175554 | 79 | 96 | 2.0 | 9.0 | 0.00 | 0.00 | 0.00 | 40 | 1022.7 |
| 20260503175054 | 79 | 143 | 2.0 | 8.0 | 0.00 | 0.00 | 0.00 | 43 | 1022.7 |
| 20260503174613 | 79 | 95 | 3.0 | 8.0 | 0.00 | 0.00 | 0.00 | 40 | 1022.8 |
| 20260503174054 | 79 | 77 | 3.0 | 9.0 | 0.00 | 0.00 | 0.00 | 41 | 1022.8 |
| 20260503173555 | 79 | 63 | 4.0 | 9.0 | 0.00 | 0.00 | 0.00 | 39 | 1023.0 |
| 20260503173116 | 79 | 204 | 3.0 | 9.0 | 0.00 | 0.00 | 0.00 | 43 | 1023.2 |
| 20260503172555 | 79 | 148 | 3.0 | 9.0 | 0.00 | 0.00 | 0.00 | 42 | 1023.1 |
| 20260503172058 | 78 | 173 | 2.0 | 8.0 | 0.00 | 0.00 | 0.00 | 46 | 1023.3 |
| 20260503171553 | 78 | 228 | 4.0 | 12.0 | 0.00 | 0.00 | 0.00 | 44 | 1023.2 |
| 20260503171054 | 78 | 213 | 5.0 | 12.0 | 0.00 | 0.00 | 0.00 | 45 | 1023.2 |
| 20260503170554 | 78 | 206 | 4.0 | 8.0 | 0.00 | 0.00 | 0.00 | 45 | 1023.4 |
| 20260503150552 | 73 | 196 | 5.0 | 8.0 | 0.00 | 0.00 | 0.00 | 60 | 1023.5 |
| 20260503131054 | 58 | 0 | 0.0 | 0.0 | 0.00 | 0.01 | 0.00 | 93 | 1023.0 |
| 20260503130555 | 57 | 0 | 0.0 | 0.0 | 0.00 | 0.01 | 0.00 | 93 | 1022.9 |
| 20260503110551 | 52 | 0 | 0.0 | 0.0 | 0.00 | 0.01 | 0.00 | 90 | 1021.8 |
| 20260503100107 | 53 | 0 | 0.0 | 0.0 | 0.00 | 0.01 | 0.00 | 90 | 1021.4 |
| 20260503090108 | 53 | 0 | 0.0 | 0.0 | 0.00 | 0.01 | 0.00 | 89 | 1021.6 |
| 20260503081601 | 54 | 0 | 0.0 | 0.0 | 0.00 | 0.01 | 0.00 | 89 | 1021.6 |
| 20260503081052 | 54 | 0 | 0.0 | 0.0 | 0.00 | 0.01 | 0.00 | 89 | 1021.5 |
| 20260503080556 | 54 | 0 | 0.0 | 0.0 | 0.00 | 0.01 | 0.00 | 89 | 1021.7 |
| 20260503080104 | 54 | 0 | 0.0 | 0.0 | 0.00 | 0.01 | 0.00 | 89 | 1021.6 |
| 20260503072552 | 55 | 0 | 0.0 | 0.0 | 0.00 | 0.01 | 0.00 | 89 | 1021.8 |
| 20260503072052 | 55 | 0 | 0.0 | 0.0 | 0.00 | 0.01 | 0.00 | 89 | 1021.8 |
| 20260503071609 | 55 | 0 | 0.0 | 0.0 | 0.00 | 0.01 | 0.00 | 89 | 1021.7 |
| 20260503071053 | 55 | 0 | 0.0 | 0.0 | 0.00 | 0.01 | 0.00 | 89 | 1021.7 |
| 20260503070552 | 55 | 0 | 0.0 | 0.0 | 0.00 | 0.01 | 0.00 | 89 | 1021.9 |
| 20260503070112 | 55 | 0 | 0.0 | 0.0 | 0.00 | 0.01 | 0.00 | 89 | 1021.9 |
| 20260503060105 | 56 | 0 | 0.0 | 0.0 | 0.00 | 0.01 | 0.00 | 89 | 1022.0 |
| 20260503055051 | 56 | 0 | 0.0 | 0.0 | 0.00 | 0.01 | 0.00 | 89 | 1022.1 |
| 20260503054558 | 56 | 0 | 0.0 | 0.0 | 0.00 | 0.01 | 0.00 | 89 | 1021.9 |
| 20260503054053 | 56 | 0 | 0.0 | 0.0 | 0.00 | 0.01 | 0.00 | 88 | 1021.8 |
| 20260503053552 | 56 | 0 | 0.0 | 0.0 | 0.00 | 0.01 | 0.00 | 89 | 1021.7 |
| 20260503053055 | 56 | 0 | 0.0 | 0.0 | 0.00 | 0.01 | 0.00 | 89 | 1021.7 |
| 20260503052551 | 57 | 0 | 0.0 | 0.0 | 0.00 | 0.01 | 0.00 | 89 | 1021.8 |
| 20260503052053 | 57 | 0 | 0.0 | 0.0 | 0.00 | 0.01 | 0.00 | 88 | 1021.8 |
| 20260503051555 | 57 | 0 | 0.0 | 0.0 | 0.00 | 0.01 | 0.00 | 88 | 1021.8 |
| 20260503051056 | 57 | 0 | 0.0 | 0.0 | 0.00 | 0.01 | 0.00 | 88 | 1021.7 |
| 20260503050553 | 57 | 0 | 0.0 | 0.0 | 0.00 | 0.01 | 0.00 | 88 | 1021.8 |
| 20260503045553 | 57 | 0 | 0.0 | 0.0 | 0.00 | 0.01 | 0.01 | 88 | 1021.7 |
| 20260503045052 | 57 | 0 | 0.0 | 0.0 | 0.00 | 0.01 | 0.01 | 88 | 1021.6 |